This demonstration page uses our WeatherBlox Daily Observations layout. Learn more.

Left ArrowRight Arrow

Hourly Observations for December 6, 2016

Temp ( °F °C ) Dew Point ( °F °C ) Humidity (%) Winds ( mph kmh ) Pressure ( in mb ) Visibility ( mi km ) Precip ( " mm )
12:51 am 00:51 Clear 37 2.8 17 -8.3 44 44 E 5 7 29.91 1013 10 16 N/A
1:51 am 01:51 Clear 41 5 16 -8.9 36 36 ENE 7 11 29.90 1012 10 16 N/A
2:51 am 02:51 Clear 34 1.1 18 -7.8 52 52 NNW 7 11 29.91 1013 10 16 N/A
3:51 am 03:51 Clear 33 0.6 18 -7.8 54 54 N N/A 29.91 1013 10 16 N/A
4:51 am 04:51 Clear 33 0.6 17 -8.3 52 52 NE 7 11 29.91 1013 10 16 N/A
5:51 am 05:51 Clear 33 0.6 17 -8.3 52 52 N N/A 29.92 1013 10 16 N/A
6:51 am 06:51 Clear 33 0.6 17 -8.3 52 52 N N/A 29.93 1014 10 16 N/A
7:51 am 07:51 Sunny 35 1.7 21 -6.1 57 57 N N/A 29.94 1014 10 16 N/A
8:51 am 08:51 Sunny 41 5 20 -6.7 43 43 N N/A 29.95 1014 10 16 N/A
9:51 am 09:51 Sunny 49 9.4 22 -5.6 35 35 SSE 6 9 29.95 1014 10 16 N/A
10:51 am 10:51 Sunny 54 12.2 30 -1.1 40 40 E 9 15 29.94 1014 10 16 N/A
11:51 am 11:51 Sunny 57 13.9 33 0.6 41 41 VRB 5 7 29.91 1013 10 16 N/A
12:51 pm 12:51 Sunny 59 15 31 -0.6 35 35 N N/A 29.87 1011 10 16 N/A
1:51 pm 13:51 Sunny 62 16.7 27 -2.8 26 26 SE 3 6 29.82 1010 10 16 N/A
2:51 pm 14:51 Sunny 64 17.8 25 -3.9 23 23 N 5 7 29.82 1010 10 16 N/A
3:51 pm 15:51 Sunny 63 17.2 25 -3.9 24 24 NNW 9 15 29.82 1010 10 16 N/A
4:51 pm 16:51 Sunny 60 15.6 26 -3.3 27 27 NW 6 9 29.83 1010 10 16 N/A
5:51 pm 17:51 Clear 52 11.1 26 -3.3 37 37 WNW 6 9 29.86 1011 10 16 N/A
6:51 pm 18:51 Clear 48 8.9 25 -3.9 41 41 NNW 7 11 29.88 1012 10 16 N/A
7:51 pm 19:51 Clear 46 7.8 25 -3.9 44 44 WNW 6 9 29.89 1012 10 16 N/A
8:51 pm 20:51 Clear 42 5.6 25 -3.9 51 51 SSE 3 6 29.89 1012 10 16 N/A
9:51 pm 21:51 Clear 43 6.1 25 -3.9 49 49 E 5 7 29.90 1013 10 16 N/A
10:51 pm 22:51 Clear 42 5.6 25 -3.9 51 51 ESE 3 6 29.90 1013 10 16 N/A
11:51 pm 23:51 Clear 41 5 26 -3.3 55 55 N N/A 29.90 1013 10 16 N/A

Powered by AerisWeather